EW1931 Weather Reports


Display with metric or nautical units.
time (UTC)temp
F
wind
direction
speed
MPH
gust
MPH
rain 1hr
in
rain 24hr
in
rain mn
in
humidity
%
barometer
mb
20240228050042 10 159 2.0 3.0 0.00 0.00 0.00 77 1013.5
20240228044537 10 137 3.0 6.0 0.00 0.00 0.00 76 1013.4
20240228043035 10 146 3.0 5.0 0.00 0.00 0.00 75 1013.6
20240228041529 10 136 2.0 4.0 0.00 0.00 0.00 75 1014.0
20240228040025 10 109 1.0 3.0 0.00 0.00 0.00 75 1014.1
20240228034520 10 53 0.0 0.0 0.00 0.00 0.00 75 1014.1
20240228033029 10 53 0.0 0.0 0.00 0.00 0.00 74 1014.3
20240228031512 10 28 0.0 0.0 0.00 0.00 0.00 74 1014.6
20240228030102 10 27 1.0 4.0 0.00 0.00 0.00 75 1014.6
20240228024551 9 74 0.0 0.0 0.00 0.00 0.00 76 1014.7
20240228023053 9 74 1.0 3.0 0.00 0.00 0.00 78 1015.0
20240228021543 9 74 3.0 4.0 0.00 0.00 0.00 77 1014.9
20240228014534 9 68 0.0 3.0 0.00 0.00 0.00 75 1015.0
20240228013029 9 80 1.0 3.0 0.00 0.00 0.00 74 1014.9
20240228011524 9 75 0.0 3.0 0.00 0.00 0.00 73 1015.2
20240228010003 10 53 1.0 4.0 0.00 0.00 0.00 73 1015.0
20240228004559 10 67 2.0 7.0 0.00 0.00 0.00 72 1014.7
20240228003042 10 85 3.0 6.0 0.00 0.00 0.00 72 1014.9
20240228001533 10 45 1.0 5.0 0.00 0.00 0.00 73 1015.0
20240228000018 10 101 0.0 4.0 0.00 0.00 0.00 73 1014.8
20240227234505 10 27 0.0 2.0 0.00 0.00 0.00 72 1015.0
20240227233043 10 38 1.0 3.0 0.00 0.00 0.00 71 1015.0
20240227231539 10 24 1.0 4.0 0.00 0.00 0.00 71 1015.3
20240227230023 10 82 3.0 7.0 0.00 0.00 0.00 71 1015.3
20240227224518 10 104 0.0 7.0 0.00 0.00 0.00 72 1015.0
20240227221508 9 42 2.0 9.0 0.00 0.00 0.00 72 1015.0
20240227220020 9 53 5.0 6.0 0.00 0.00 0.00 71 1015.0
20240227214603 9 22 3.0 9.0 0.00 0.00 0.00 72 1015.0
20240227213108 10 57 2.0 7.0 0.00 0.00 0.00 70 1014.9
20240227211551 8 66 6.0 11.0 0.00 0.00 0.00 71 1014.9
20240227210030 8 64 2.0 7.0 0.00 0.00 0.00 72 1014.9
20240227204525 8 54 5.0 8.0 0.00 0.00 0.00 70 1014.8
20240227203003 8 57 3.0 8.0 0.00 0.00 0.00 71 1014.9
20240227201559 8 40 7.0 12.0 0.00 0.00 0.00 70 1015.0
20240227200037 7 70 3.0 9.0 0.00 0.00 0.00 72 1015.0
20240227194533 7 87 3.0 12.0 0.00 0.00 0.00 71 1015.4
20240227193025 6 90 4.0 10.0 0.00 0.00 0.00 70 1015.5
20240227191528 7 48 6.0 11.0 0.00 0.00 0.00 72 1015.5
20240227190016 5 85 7.0 13.0 0.00 0.00 0.00 72 1015.4
20240227184513 5 27 5.0 10.0 0.00 0.00 0.00 74 1015.6
20240227183010 5 355 6.0 10.0 0.00 0.00 0.00 74 1015.4
20240227181551 4 30 4.0 11.0 0.00 0.00 0.00 74 1015.6
20240227180051 4 54 6.0 10.0 0.00 0.00 0.00 75 1015.5
20240227174547 3 30 3.0 10.0 0.00 0.00 0.00 75 1015.1
20240227173026 3 46 6.0 11.0 0.00 0.00 0.00 76 1014.9
20240227171520 3 94 7.0 11.0 0.00 0.00 0.00 78 1014.9
20240227170004 2 64 3.0 11.0 0.00 0.00 0.00 78 1014.9
20240227164602 1 98 3.0 6.0 0.00 0.00 0.00 79 1014.9
20240227161557 0 109 5.0 9.0 0.00 0.00 0.00 77 1014.7
20240227160046 1 93 6.0 11.0 0.00 0.00 0.00 77 1014.6
20240227154544 0 49 7.0 12.0 0.00 0.00 0.00 78 1014.4
20240227153047 0 53 7.0 13.0 0.00 0.00 0.00 79 1014.4
20240227151539 0 45 7.0 10.0 0.00 0.00 0.00 79 1014.3
20240227150028 0 65 7.0 10.0 0.00 0.00 0.00 79 1014.1
20240227144528 0 57 6.0 8.0 0.00 0.00 0.00 78 1013.9
20240227143005 0 53 7.0 10.0 0.00 0.00 0.00 78 1013.6
20240227141606 0 63 7.0 10.0 0.00 0.00 0.00 78 1013.5
20240227140055 0 57 6.0 8.0 0.00 0.00 0.00 78 1013.3
20240227134602 0 58 6.0 9.0 0.00 0.00 0.00 78 1013.0
20240227133046 0 61 4.0 9.0 0.00 0.00 0.00 78 1012.9
20240227131549 0 60 7.0 10.0 0.00 0.00 0.00 78 1012.8
20240227130038 0 53 6.0 9.0 0.00 0.00 0.00 78 1012.8
20240227124545 0 42 6.0 10.0 0.00 0.00 0.00 78 1012.4
20240227123013 0 44 6.0 10.0 0.00 0.00 0.00 78 1012.2
20240227121508 0 59 8.0 12.0 0.00 0.00 0.00 78 1012.0
20240227120003 0 43 8.0 13.0 0.00 0.00 0.00 79 1011.9
20240227114601 0 61 9.0 14.0 0.00 0.00 0.00 79 1011.7
20240227113103 0 44 10.0 14.0 0.00 0.00 0.00 79 1011.4
20240227111550 0 32 9.0 13.0 0.00 0.00 0.00 79 1011.2
20240227110045 0 47 8.0 14.0 0.00 0.00 0.00 79 1011.1
20240227104540 0 49 9.0 14.0 0.00 0.00 0.00 79 1010.9
20240227103045 0 34 9.0 14.0 0.00 0.00 0.00 79 1010.7
20240227101520 0 26 11.0 14.0 0.00 0.00 0.00 79 1010.6
20240227100016 0 20 8.0 14.0 0.00 0.00 0.00 79 1010.6
20240227094512 0 17 11.0 15.0 0.00 0.00 0.00 79 1010.4
20240227093006 1 40 8.0 16.0 0.00 0.00 0.00 78 1010.2
20240227091501 1 36 8.0 14.0 0.00 0.00 0.00 78 1010.1
20240227090058 1 21 10.0 16.0 0.00 0.00 0.00 78 1010.0
20240227084554 1 44 10.0 14.0 0.00 0.00 0.00 78 1010.0
20240227083049 1 5 10.0 15.0 0.00 0.00 0.00 78 1010.0
20240227081527 1 360 10.0 15.0 0.00 0.00 0.00 78 1010.0
20240227080023 1 11 10.0 14.0 0.00 0.00 0.00 77 1009.9
20240227074506 1 30 11.0 16.0 0.00 0.00 0.00 77 1009.6
20240227073001 1 29 13.0 17.0 0.00 0.00 0.00 77 1009.4
20240227071600 2 24 11.0 16.0 0.00 0.00 0.00 77 1009.3
20240227070054 2 39 10.0 16.0 0.00 0.00 0.00 78 1009.0
20240227064549 2 355 12.0 16.0 0.00 0.00 0.00 75 1008.9
20240227063044 2 37 10.0 17.0 0.00 0.00 0.00 77 1008.6
20240227061542 2 347 13.0 19.0 0.00 0.00 0.00 76 1008.5
20240227060048 2 5 12.0 17.0 0.00 0.00 0.00 76 1008.3
20240227054527 3 22 10.0 17.0 0.00 0.00 0.00 75 1008.2
20240227053024 3 355 11.0 18.0 0.00 0.00 0.00 76 1007.9
20240227051513 3 360 10.0 16.0 0.00 0.00 0.00 76 1007.6